User: anonymous   Login
Location: Albany
(35.0170°S, 117.8920°E)
Time: 08:02:54
(UTC+08:00)
Language:

Explorer 11/Cluster Stage 4 - Orbit

View from above orbital plane
View from above orbital plane
View from above satellite
View from above satellite

Ground track
Ground track

The orbit data is extracted from the following two-line orbital elements,

1 00107U 61013A   21129.39163104  .00000329  00000-0  21778-4 0  9994
2 00107  28.7880 140.3531 0545761 200.8464 156.9023 14.09186970 12242
Epoch (UTC): 09 May 2021 09:23:56
Eccentricity: 0.0545761
inclination: 28.7880°
perigee height: 467 km
apogee height: 1257 km
right ascension of ascending node: 140.3531°
argument of perigee: 200.8464°
revolutions per day: 14.09186970
mean anomaly at epoch: 156.9023°
orbit number at epoch: 1224

The dashed part of the orbit path shows where the satellite is in the earth's shadow,  

DLR